Regional Weather Roundup
Issued by NWS

Home | Current Version | Previous Version | Graphics & Text | Print | Product List | Glossary On
Versions: 1 2 3 4 5 6 7 8 9 10 11 12 13 14 15 16 17 18 19 20 21 22 23 24 25 26 27 28 29 30 31 32 33 34 35 36 37 38 39 40 41 42 43 44 45 46 47 48 49 50
000
ASUS43 KMPX 302201
RWRMN
WEATHER ROUNDUP FOR MINNESOTA
NATIONAL WEATHER SERVICE TWIN CITIES/CHANHASSEN MN
500 PM CDT SAT AUG 30 2014


NOTE: "FAIR" INDICATES FEW OR NO CLOUDS BELOW 12,000 FEET WITH NO
SIGNIFICANT WEATHER AND/OR OBSTRUCTIONS TO VISIBILITY. N/A MEANS
CURRENT SKY AND/OR WEATHER CONDITIONS ARE NOT AVAILABLE.

MNZ060>063-068>070-302300-
   Twin Cities Metro

CITY           SKY/WX    TMP DP  RH WIND       PRES   REMARKS
TWIN CITIES    PTSUNNY   76  62  62 NE8       29.85S
ST PAUL        CLOUDY    73  62  68 NE10      29.86R
CRYSTAL        MOSUNNY   76  61  59 VRB3      29.84S
BLAINE         PTSUNNY   75  63  64 NE6       29.86S
LAKEVILLE      MOSUNNY   73  63  68 NE5       29.84F
EDEN PRAIRIE   MOSUNNY   76  63  64 NE5       29.83F
SOUTH ST PAUL  MOSUNNY   75  61  62 NE5       29.85S
LAKE ELMO      PTSUNNY   72  61  68 N3        29.87S
$$
MNZ001>005-007-008-013>017-022>024-027-028-302300-
   Northwest Minnesota

CITY           SKY/WX    TMP DP  RH WIND       PRES   REMARKS
BEMIDJI        CLOUDY    65  57  75 E3        29.88S
HALLOCK        SUNNY     73  48  40 SE8       29.83F
ROSEAU         SUNNY     72  55  56 E8        29.87F
WARROAD        SUNNY     66  55  68 NE9       29.88F
THIEF RVR FALL SUNNY     72  54  53 SE6       29.85F
CROOKSTON      SUNNY     73  54  49 SE6       29.84F
FOSSTON        SUNNY     73  57  56 SE7       29.87F
DETROIT LAKES  CLOUDY    64  59  82 SE5       29.88S
MOORHEAD       CLOUDY    68  63  83 CALM      29.85F
PARK RAPIDS    CLOUDY    63  58  83 E5        29.88S
MAHNOMEN       CLOUDY    64  58  78 CALM      29.87S
$$
MNZ006-009>011-018-025>026-302300-
   North Central Minnesota

CITY           SKY/WX    TMP DP  RH WIND       PRES   REMARKS
BAUDETTE       SUNNY     70  55  59 N6        29.87F
FLAG ISLAND    SUNNY     66  48  52 E6        29.87F
INTL FALLS     MOSUNNY   71  50  47 N8        29.88S
WASKISH        MOSUNNY   70  57  64 CALM      29.87F
BIG FORK       PTSUNNY   66  57  72 CALM      29.90S
LONGVILLE      CLOUDY    64  61  88 CALM      29.88S
GRAND RAPIDS   CLOUDY    64  57  77 CALM      29.89S
CRANE LAKE     PTSUNNY   64  54  68 CALM      29.91S
ORR            CLOUDY    64  52  63 CALM      29.88S
COOK           CLOUDY    63  55  77 CALM      29.91R
WALKER         CLOUDY    63  58  85 E3        29.88S
$$
MNZ012-019>021-037-302300-
   Northeast Minnesota

CITY           SKY/WX    TMP DP  RH WIND       PRES   REMARKS
DULUTH         CLOUDY    64  59  83 E9        29.89R
ELY            CLOUDY    63  55  77 CALM      29.90S
HIBBING        CLOUDY    65  57  75 E5        29.89S
EVELETH        CLOUDY    63  55  77 CALM      29.90S
DULUTH HARBOR  PTSUNNY   66  63  88 NE9       29.89R
TWO HARBORS    CLOUDY    61  55  82 E5        29.88S
SILVER BAY     DRIZZLE   59  59 100 CALM      29.88S
GRAND MARAIS     N/A     63  59  87 SW5       29.88R
G MARAIS ARPRT CLOUDY    61  54  77 N5        29.92R
$$
MNZ029>031-032-039>041-046>048-054>057-064-302300-
   West Central Minnesota

CITY           SKY/WX    TMP DP  RH WIND       PRES   REMARKS
FERGUS FALLS   CLOUDY    66  61  82 CALM      29.86S
WHEATON        CLOUDY    63  57  82 CALM      29.88F
MORRIS         SUNNY     66  61  82 SW5       29.86S
ALEXANDRIA     CLOUDY    68  61  78 CALM      29.88F
ELBOW LAKE     CLOUDY    65  60  85 CALM      29.86F
WADENA         CLOUDY    64  61  88 E3        29.87S
GLENWOOD       SUNNY     72  63  73 SW6       29.87F
APPLETON       CLOUDY    68  61  77 CALM      29.86F
BENSON         CLOUDY    66  63  88 W5        29.87S
ORTONVILLE     MOSUNNY   70  57  64 CALM      29.85F
MADISON        SUNNY     72  63  73 CALM      29.86F
WILLMAR        FAIR      72  63  73 W8        29.88S
$$
MNZ033>034-036-042>043-049>051-058-059-302300-
   Central Minnesota

CITY           SKY/WX    TMP DP  RH WIND       PRES   REMARKS
ST CLOUD       CLOUDY    72  65  78 CALM      29.85S
SAUK CENTRE    MOCLDY    72  63  73 CALM      29.86F
PAYNESVILLE    RAIN      69  62  80 CALM      29.86F
AITKIN         CLOUDY    72  63  73 N3        29.85F
PINE RIVER     CLOUDY    64  61  88 CALM      29.91S
BRAINERD       CLOUDY    68  62  81 NW6       29.87S
STAPLES        CLOUDY    64  61  88 CALM      29.87F
LONG PRAIRIE   CLOUDY    68  61  77 CALM      29.88S
LITTLE FALLS   CLOUDY    70  61  73 CALM      29.86F
LITCHFIELD     LGT RAIN  72  68  88 CALM      29.86S
BUFFALO        RAIN      70  64  80 W9        29.87R
MAPLE LAKE     CLOUDY    68  67  94 E3        29.87S FOG
$$
MNZ037-044-045-052-053-302300-
   East Central Minnesota

CITY           SKY/WX    TMP DP  RH WIND       PRES   REMARKS
PRINCETON      PTSUNNY   73  63  68 CALM      29.86S
MORA           MOSUNNY   72  59  64 CALM      29.87S
CAMBRIDGE      PTSUNNY   75  61  60 CALM      29.84S
RUSH CITY      MOSUNNY   73  61  67 NE3       29.86S
MOOSE LAKE     PTSUNNY   70  61  73 SE3       29.84F
HINCKLEY       CLOUDY    72  63  73 E5        29.86S
CLOQUET        CLOUDY    64  61  88 E3        29.88S
MCGREGOR       CLOUDY    70  61  73 CALM      29.87S
$$
MNZ071>073-080-081-089-090-097-098-302300-
   Southwest Minnesota

CITY           SKY/WX    TMP DP  RH WIND       PRES   REMARKS
MONTEVIDEO     CLOUDY    66  66 100 W3        29.88F
GRANITE FALLS  CLOUDY    66  63  87 W3        29.89S
CANBY          PTSUNNY   70  62  74 S3        29.87F
MARSHALL       MOSUNNY   72  61  68 NE5       29.86F
REDWOOD FALLS  CLOUDY    69  62  78 W8        29.87F
OLIVIA         CLOUDY    70  63  78 W6        29.87S
PIPESTONE      MOSUNNY   72  61  68 CALM      29.88F
WINDOM         PTSUNNY   72  63  73 N3        29.88F
WORTHINGTON    SUNNY     72  61  68 W5        29.90S
JACKSON        PTSUNNY   75  59  57 W5        29.88F
TRACY          MOSUNNY   72  63  72 CALM      29.87F
SLAYTON        CLOUDY    71  60  67 CALM      29.89F
$$
MNZ065>067-074>077-082>085-091>093-302300-
   South Central Minnesota

CITY           SKY/WX    TMP DP  RH WIND       PRES   REMARKS
MANKATO        PTSUNNY   73  63  68 NW10      29.86S
NEW ULM        MOSUNNY   72  64  78 W8        29.87S
ST JAMES       SUNNY     77  63  61 NW6       29.88F
FAIRMONT       MOSUNNY   73  61  64 NW3       29.87F
GLENCOE        CLOUDY    74  64  69 W3        29.85S
FARIBAULT      SUNNY     79  63  57 CALM      29.86S
OWATONNA       MOSUNNY   75  64  69 W5        29.86S
WASECA         SUNNY     73  61  64 W7        29.88S
ALBERT LEA     SUNNY     75  64  69 W6        29.87S
$$
MNZ078>079-086>088-094>096-302300-
   Southeast Minnesota

CITY           SKY/WX    TMP DP  RH WIND       PRES   REMARKS
ROCHESTER      PTSUNNY   74  64  71 MISG      29.87S
RED WING       MOSUNNY   75  61  60 CALM      29.84S
STANTON        PTSUNNY   75  64  68 NE6       29.84S
DODGE CENTER   SUNNY     73  66  78 W5        29.87S
WINONA         SUNNY     73  64  73 NW8       29.84S
AUSTIN         MOSUNNY   75  66  73 NW12      29.86S
PRESTON        MOSUNNY   75  68  79 CALM      29.86S
$$
ABBREVIATIONS USED IN REMARKS
   TC - TEMPERATURES IN CELSIUS
  WCI - WIND CHILL INDEX
   HX - HEAT INDEX
  VSB - VISIBILITY
$$


USA.gov is the U.S. government's official web portal to all federal, state and local government web resources and services.